EW3670 Weather Reports


Display with metric or nautical units.
time (UTC)temp
F
wind
direction
speed
MPH
gust
MPH
rain 1hr
in
rain 24hr
in
rain mn
in
humidity
%
barometer
mb
20260506032551 53 288 2.0 11.0 0.00 0.01 0.01 44 1007.2
20260506032054 53 270 4.0 11.0 0.00 0.01 0.01 43 1007.2
20260506031555 53 287 2.0 8.0 0.00 0.01 0.01 44 1007.2
20260506031054 53 286 2.0 8.0 0.00 0.01 0.01 44 1007.1
20260506030553 53 0 0.0 8.0 0.00 0.01 0.01 44 1007.0
20260506030057 53 309 1.0 10.0 0.00 0.01 0.01 44 1006.9
20260506025551 53 0 1.0 10.0 0.00 0.01 0.01 44 1006.9
20260506025056 53 294 1.0 9.0 0.00 0.01 0.01 44 1006.9
20260506024553 53 296 0.0 7.0 0.00 0.01 0.01 43 1006.9
20260506024053 53 296 1.0 8.0 0.00 0.01 0.01 43 1006.8
20260506023550 54 294 1.0 8.0 0.00 0.01 0.01 43 1006.8
20260506023106 54 293 1.0 8.0 0.00 0.01 0.01 43 1006.8
20260506022553 54 284 0.0 11.0 0.00 0.01 0.01 43 1006.8
20260506022053 54 282 1.0 11.0 0.00 0.01 0.01 43 1006.7
20260506021612 54 281 1.0 5.0 0.00 0.01 0.01 43 1006.6
20260506021053 54 290 1.0 7.0 0.00 0.01 0.01 43 1006.7
20260506020552 54 340 1.0 8.0 0.00 0.01 0.01 43 1006.7
20260506020052 54 281 0.0 9.0 0.00 0.01 0.01 44 1006.7
20260506015552 54 0 1.0 9.0 0.00 0.01 0.01 43 1006.6
20260506015055 54 303 2.0 9.0 0.00 0.01 0.01 43 1006.6
20260506014553 54 286 3.0 9.0 0.00 0.01 0.01 43 1006.6
20260506014054 54 279 1.0 9.0 0.00 0.01 0.01 43 1006.6
20260506013553 54 326 1.0 13.0 0.00 0.01 0.01 44 1006.5
20260506013107 54 294 3.0 13.0 0.00 0.01 0.01 43 1006.5
20260506012551 54 292 1.0 11.0 0.00 0.01 0.01 44 1006.3
20260506012053 55 269 2.0 8.0 0.00 0.01 0.01 44 1006.2
20260506011614 55 286 2.0 8.0 0.00 0.01 0.01 43 1006.0
20260506011049 55 0 2.0 8.0 0.00 0.01 0.01 44 1005.9
20260506010553 55 291 2.0 9.0 0.00 0.01 0.01 44 1005.9
20260506010058 55 279 2.0 11.0 0.00 0.01 0.01 43 1005.6
20260506005555 55 257 3.0 11.0 0.00 0.01 0.01 44 1005.5
20260506005052 55 0 3.0 13.0 0.00 0.01 0.01 44 1005.5
20260506004555 55 0 3.0 14.0 0.00 0.01 0.01 44 1005.4
20260506004053 55 274 1.0 14.0 0.00 0.01 0.01 44 1005.3
20260506003553 55 296 2.0 12.0 0.00 0.01 0.01 44 1005.1
20260506003054 55 341 3.0 14.0 0.00 0.01 0.01 44 1005.0
20260506002553 56 302 2.0 14.0 0.00 0.01 0.01 44 1004.9
20260506002052 56 290 2.0 15.0 0.00 0.01 0.01 45 1004.9
20260506001555 56 289 5.0 15.0 0.00 0.01 0.01 45 1004.9
20260506001054 56 301 5.0 14.0 0.00 0.01 0.01 46 1004.8
20260506000554 56 310 4.0 14.0 0.00 0.01 0.01 45 1004.7
20260506000055 56 327 2.0 14.0 0.00 0.01 0.01 46 1004.8
20260505235553 57 297 4.0 14.0 0.00 0.01 0.01 45 1004.8
20260505235053 57 265 3.0 12.0 0.00 0.01 0.01 45 1004.5
20260505234556 57 0 3.0 19.0 0.00 0.01 0.01 45 1004.4
20260505234053 57 267 4.0 19.0 0.00 0.01 0.01 45 1004.3
20260505233554 57 286 3.0 13.0 0.00 0.01 0.01 45 1004.3
20260505233058 57 309 4.0 14.0 0.00 0.01 0.01 45 1004.4
20260505232553 58 315 4.0 14.0 0.00 0.01 0.01 46 1004.4
20260505232056 58 267 4.0 13.0 0.00 0.01 0.01 45 1004.2
20260505231607 58 306 3.0 12.0 0.00 0.01 0.01 46 1004.1
20260505231053 58 310 3.0 12.0 0.00 0.01 0.01 46 1003.9
20260505230550 58 286 1.0 11.0 0.00 0.01 0.01 47 1003.6
20260505230055 58 293 2.0 12.0 0.00 0.01 0.01 47 1003.6
20260505225553 58 279 4.0 14.0 0.00 0.01 0.01 49 1003.5
20260505225053 58 329 2.0 14.0 0.00 0.01 0.01 51 1003.5
20260505224556 58 309 3.0 12.0 0.00 0.01 0.01 51 1003.4
20260505224050 58 259 4.0 13.0 0.00 0.01 0.01 51 1003.4
20260505223550 58 288 4.0 14.0 0.00 0.01 0.01 51 1003.5
20260505223058 59 254 4.0 15.0 0.00 0.01 0.01 52 1003.5
20260505222557 59 296 3.0 15.0 0.00 0.01 0.01 52 1003.3
20260505222053 59 314 2.0 14.0 0.00 0.01 0.01 53 1003.1
20260505221600 60 319 4.0 14.0 0.00 0.01 0.01 52 1003.1
20260505221053 60 294 1.0 14.0 0.00 0.01 0.01 48 1003.2
20260505220552 61 306 5.0 16.0 0.00 0.01 0.01 46 1003.1
20260505220059 61 323 4.0 16.0 0.00 0.01 0.01 46 1002.9
20260505215553 62 321 6.0 15.0 0.00 0.01 0.01 46 1002.8
20260505215053 62 316 5.0 13.0 0.00 0.01 0.01 45 1002.8
20260505214558 62 336 4.0 13.0 0.00 0.01 0.01 45 1002.7
20260505214053 63 311 5.0 19.0 0.00 0.01 0.01 44 1002.4
20260505213550 63 331 5.0 21.0 0.00 0.01 0.01 44 1002.0
20260505213053 63 333 6.0 23.0 0.00 0.01 0.01 44 1001.9
20260505212554 64 322 5.0 23.0 0.00 0.01 0.01 45 1001.9
20260505212054 64 273 4.0 17.0 0.00 0.01 0.01 46 1002.0
20260505211552 64 331 6.0 17.0 0.00 0.01 0.01 45 1001.7
20260505211054 64 301 7.0 16.0 0.00 0.01 0.01 44 1001.7
20260505210553 65 322 4.0 17.0 0.00 0.01 0.01 46 1001.4
20260505210051 65 333 6.0 17.0 0.00 0.01 0.01 45 1001.2
20260505205554 65 332 2.0 15.0 0.00 0.01 0.01 46 1001.0
20260505205053 65 300 5.0 15.0 0.00 0.01 0.01 46 1000.9
20260505204555 65 24 3.0 21.0 0.00 0.01 0.01 46 1000.7
20260505204053 65 300 7.0 21.0 0.00 0.01 0.01 46 1000.7
20260505203551 65 311 5.0 18.0 0.00 0.01 0.01 47 1000.7
20260505203119 66 340 6.0 18.0 0.00 0.01 0.01 48 1000.6
20260505202557 66 293 2.0 18.0 0.00 0.01 0.01 48 1000.5
20260505202056 66 309 5.0 18.0 0.00 0.01 0.01 48 1000.4
20260505201603 66 342 5.0 18.0 0.00 0.01 0.01 48 1000.5
20260505201050 66 321 3.0 13.0 0.00 0.01 0.01 49 1000.3
20260505200551 66 282 4.0 17.0 0.00 0.01 0.01 49 1000.3
20260505200057 65 14 3.0 17.0 0.00 0.01 0.01 50 1000.3
20260505195555 65 327 3.0 14.0 0.00 0.01 0.01 51 1000.2
20260505195053 65 304 5.0 16.0 0.00 0.01 0.01 52 1000.2
20260505194558 65 360 5.0 16.0 0.00 0.01 0.01 54 1000.1
20260505194053 65 339 5.0 16.0 0.00 0.01 0.01 56 1000.0
20260505193553 65 338 7.0 16.0 0.00 0.01 0.01 59 1000.1
20260505193057 65 215 4.0 11.0 0.00 0.01 0.01 63 999.8
20260505192557 64 270 4.0 10.0 0.00 0.01 0.01 67 1000.0
20260505192053 64 0 2.0 12.0 0.00 0.01 0.01 70 999.9
20260505191603 64 0 3.0 12.0 0.00 0.01 0.01 70 999.7
20260505191047 64 269 3.0 9.0 0.00 0.01 0.01 70 999.7
20260505190548 64 0 2.0 10.0 0.00 0.01 0.01 71 999.8
20260505190053 64 317 4.0 10.0 0.00 0.01 0.01 71 999.7
20260505185548 65 329 2.0 6.0 0.00 0.01 0.01 70 999.7
20260505185050 65 0 1.0 10.0 0.00 0.01 0.01 70 999.7
20260505184557 65 352 2.0 10.0 0.00 0.01 0.01 70 999.7
20260505184052 65 338 4.0 11.0 0.00 0.01 0.01 69 999.6
20260505183548 66 5 4.0 11.0 0.00 0.01 0.01 68 999.7
20260505183052 66 349 3.0 11.0 0.00 0.01 0.01 68 999.5
20260505182550 66 313 5.0 11.0 0.00 0.01 0.01 66 999.6
20260505182049 67 320 2.0 12.0 0.00 0.01 0.01 66 999.4
20260505181552 67 5 3.0 13.0 0.00 0.01 0.01 65 999.3
20260505181048 67 13 5.0 13.0 0.00 0.01 0.01 65 999.2
20260505180547 67 284 3.0 11.0 0.00 0.01 0.01 65 999.0
20260505180057 68 319 4.0 14.0 0.00 0.01 0.01 64 999.0
20260505175548 68 321 4.0 14.0 0.00 0.01 0.01 63 999.0
20260505175048 69 302 5.0 20.0 0.00 0.01 0.01 62 998.8
20260505174555 70 286 7.0 25.0 0.00 0.01 0.01 57 998.7
20260505174051 71 252 5.0 25.0 0.00 0.01 0.01 53 998.6
20260505173549 71 42 5.0 17.0 0.00 0.01 0.01 53 998.7
20260505173057 71 305 6.0 17.0 0.00 0.01 0.01 53 998.3
20260505172552 71 230 3.0 18.0 0.00 0.01 0.01 54 998.1
20260505172051 71 261 5.0 18.0 0.00 0.01 0.01 55 997.9
20260505171554 71 244 4.0 15.0 0.00 0.01 0.01 55 997.8
20260505171051 71 236 4.0 14.0 0.00 0.01 0.01 55 998.0
20260505170549 71 260 5.0 17.0 0.00 0.01 0.01 54 998.0
20260505170106 71 239 5.0 17.0 0.00 0.01 0.01 53 997.9
20260505165549 71 234 3.0 13.0 0.00 0.01 0.01 54 997.7
20260505165052 71 277 4.0 14.0 0.00 0.01 0.01 54 997.6
20260505164554 71 247 4.0 15.0 0.00 0.01 0.01 54 997.5
20260505164048 71 307 6.0 15.0 0.00 0.01 0.01 54 997.5
20260505163548 71 249 6.0 14.0 0.00 0.01 0.01 54 997.4
20260505163053 71 284 4.0 14.0 0.00 0.01 0.01 55 997.5
20260505162547 71 290 4.0 12.0 0.00 0.01 0.01 57 997.5
20260505162054 71 227 4.0 15.0 0.00 0.01 0.01 57 997.5
20260505161610 71 262 5.0 16.0 0.00 0.01 0.01 57 997.5
20260505161049 71 244 4.0 16.0 0.00 0.01 0.01 57 997.4
20260505160551 71 281 5.0 14.0 0.00 0.01 0.01 58 997.5
20260505153103 70 232 3.0 10.0 0.00 0.01 0.01 62 997.3
20260505152548 69 237 2.0 12.0 0.00 0.01 0.01 63 997.4
20260505152048 68 243 4.0 12.0 0.00 0.01 0.01 65 997.5
20260505151603 67 235 5.0 12.0 0.00 0.01 0.01 66 997.7
20260505151051 67 215 3.0 9.0 0.00 0.01 0.01 68 997.6
20260505150549 66 223 4.0 9.0 0.00 0.01 0.01 69 997.9
20260505140548 60 259 0.0 8.0 0.01 0.01 0.01 78 998.2
20260505124554 62 243 2.0 12.0 0.00 0.00 0.00 71 998.1
20260505124055 62 0 4.0 12.0 0.00 0.00 0.00 71 998.0
20260505123553 62 205 2.0 8.0 0.00 0.00 0.00 70 998.0
20260505123054 62 232 3.0 8.0 0.00 0.00 0.00 70 998.0
20260505122553 62 236 2.0 7.0 0.00 0.00 0.00 70 998.1
20260505122053 62 213 2.0 10.0 0.00 0.00 0.00 70 998.1
20260505121613 62 236 3.0 10.0 0.00 0.00 0.00 70 998.1
20260505121053 62 217 2.0 9.0 0.00 0.00 0.00 70 998.1
20260505120551 62 223 2.0 8.0 0.00 0.00 0.00 70 998.0
20260505120056 62 266 4.0 8.0 0.00 0.00 0.00 69 998.2
20260505115555 62 296 3.0 10.0 0.00 0.00 0.00 69 998.3
20260505115057 62 292 2.0 10.0 0.00 0.00 0.00 69 998.4
20260505114554 62 275 2.0 8.0 0.00 0.00 0.00 69 998.4
20260505114054 62 227 2.0 8.0 0.00 0.00 0.00 69 998.3
20260505113554 62 200 3.0 11.0 0.00 0.00 0.00 69 998.1
20260505113050 62 257 2.0 11.0 0.00 0.00 0.00 69 998.0
20260505112553 62 0 4.0 11.0 0.00 0.00 0.00 69 998.0
20260505112054 61 255 4.0 11.0 0.00 0.00 0.00 69 997.9
20260505111552 61 221 2.0 10.0 0.00 0.00 0.00 69 997.9
20260505111053 61 230 3.0 10.0 0.00 0.00 0.00 69 997.8
20260505110552 61 226 5.0 10.0 0.00 0.00 0.00 69 997.8
20260505102052 60 257 3.0 9.0 0.00 0.00 0.00 69 997.4
20260505101556 59 234 1.0 7.0 0.00 0.00 0.00 69 997.6
20260505101052 59 0 1.0 8.0 0.00 0.00 0.00 69 997.6
20260505100552 59 0 2.0 8.0 0.00 0.00 0.00 68 997.5
20260505100055 59 232 1.0 7.0 0.00 0.00 0.00 68 997.5
20260505095552 59 0 2.0 7.0 0.00 0.03 0.00 68 997.5
20260505095050 59 229 2.0 6.0 0.00 0.03 0.00 67 997.5
20260505094552 59 265 1.0 6.0 0.00 0.03 0.00 67 997.5
20260505094048 59 0 2.0 8.0 0.00 0.03 0.00 67 997.5
20260505093551 59 268 1.0 8.0 0.00 0.03 0.00 66 997.3
20260505093053 59 292 1.0 8.0 0.00 0.03 0.00 66 997.4
20260505092554 59 254 2.0 8.0 0.00 0.03 0.00 66 997.4
20260505092048 59 262 2.0 9.0 0.00 0.03 0.00 65 997.5
20260505091554 59 252 3.0 9.0 0.00 0.03 0.00 65 997.4
20260505091052 59 254 2.0 10.0 0.00 0.03 0.00 65 997.4
20260505090551 59 242 3.0 12.0 0.00 0.03 0.00 64 997.5
20260505085551 59 236 4.0 13.0 0.00 0.04 0.00 63 997.6
20260505085053 59 230 4.0 12.0 0.00 0.04 0.00 63 997.6
20260505084554 59 230 3.0 10.0 0.00 0.04 0.00 62 997.6
20260505084047 59 217 2.0 9.0 0.00 0.04 0.00 61 997.6
20260505083550 59 235 3.0 9.0 0.00 0.04 0.00 61 997.7
20260505083100 59 240 2.0 8.0 0.00 0.04 0.00 60 997.6
20260505082553 59 254 2.0 5.0 0.00 0.04 0.00 59 997.7
20260505082049 59 238 2.0 8.0 0.00 0.04 0.00 59 997.7
20260505081557 59 237 2.0 8.0 0.00 0.04 0.00 58 997.7
20260505081054 59 228 3.0 8.0 0.00 0.04 0.00 57 997.9
20260505080554 59 237 4.0 8.0 0.00 0.04 0.00 57 998.0
20260505080054 59 234 2.0 8.0 0.00 0.04 0.00 56 998.1
20260505075549 59 233 3.0 8.0 0.00 0.04 0.00 56 998.1
20260505075052 59 217 2.0 8.0 0.00 0.04 0.00 55 998.1
20260505074552 59 244 2.0 6.0 0.00 0.04 0.00 55 997.9
20260505074048 59 232 2.0 7.0 0.00 0.04 0.00 55 998.0
20260505073550 59 232 2.0 12.0 0.00 0.04 0.00 55 998.1
20260505073053 59 234 4.0 12.0 0.00 0.04 0.00 55 998.1
20260505072551 59 242 2.0 9.0 0.00 0.04 0.00 55 998.2
20260505072052 59 227 2.0 9.0 0.00 0.04 0.00 55 998.2
20260505071554 58 255 3.0 9.0 0.00 0.04 0.00 56 998.3
20260505071048 58 267 1.0 5.0 0.00 0.04 0.00 56 998.3
20260505070549 58 267 1.0 4.0 0.00 0.04 0.00 56 998.2
20260505070051 58 0 1.0 6.0 0.00 0.04 0.00 56 998.2
20260505065549 58 250 1.0 6.0 0.00 0.06 0.00 56 998.1
20260505065052 58 259 2.0 7.0 0.00 0.06 0.00 56 998.2
20260505064549 58 261 2.0 7.0 0.00 0.06 0.00 57 998.2
20260505064051 58 269 1.0 5.0 0.00 0.06 0.00 57 998.3
20260505063554 58 209 2.0 5.0 0.00 0.06 0.00 56 998.3
20260505063056 58 243 0.0 4.0 0.00 0.06 0.00 57 998.3
20260505062550 58 0 0.0 7.0 0.00 0.06 0.00 57 998.3
20260505062053 59 243 1.0 7.0 0.00 0.06 0.00 57 998.5
20260505061600 59 244 0.0 6.0 0.00 0.06 0.00 57 998.5
20260505061049 59 269 2.0 6.0 0.00 0.06 0.00 57 998.5
20260505060548 59 270 0.0 4.0 0.00 0.06 0.00 57 998.5
20260505060056 59 270 0.0 2.0 0.00 0.06 0.00 56 998.7
20260505055549 59 270 0.0 2.0 0.00 0.06 0.00 56 998.7
20260505055049 59 0 0.0 2.0 0.00 0.06 0.00 56 998.7
20260505054558 59 0 0.0 2.0 0.00 0.06 0.00 55 998.6
20260505054048 59 0 0.0 4.0 0.00 0.06 0.00 55 998.6
20260505053550 59 0 0.0 4.0 0.00 0.06 0.00 55 998.6
20260505053105 59 270 0.0 4.0 0.00 0.06 0.00 56 998.8
20260505052553 59 0 1.0 4.0 0.00 0.06 0.00 56 998.8
20260505052051 59 0 1.0 4.0 0.00 0.06 0.00 56 998.9
20260505051553 60 0 0.0 4.0 0.00 0.06 0.00 56 999.0
20260505051050 60 233 0.0 4.0 0.00 0.06 0.00 56 999.0
20260505050549 60 233 1.0 4.0 0.00 0.06 0.00 56 999.0
20260505041553 61 259 2.0 7.0 0.00 0.06 0.00 55 999.4
20260505041049 61 260 1.0 6.0 0.00 0.06 0.00 55 999.3
20260505040553 61 260 0.0 6.0 0.00 0.06 0.00 55 999.3
20260505040056 61 0 2.0 6.0 0.00 0.06 0.00 55 999.3
20260505035549 62 261 1.0 7.0 0.00 0.06 0.06 54 999.4
20260505035053 62 0 1.0 7.0 0.00 0.06 0.06 53 999.4
20260505034558 62 261 2.0 7.0 0.00 0.06 0.06 53 999.4
20260505034049 62 260 1.0 6.0 0.00 0.06 0.06 53 999.3
20260505033548 63 260 1.0 8.0 0.00 0.06 0.06 52 999.4
20260505033112 63 270 1.0 8.0 0.00 0.06 0.06 52 999.5